Big Rapids, MI

11:26 AM EST on December 15, 2019 (GMT -0500)
Roben-Hood

Weather History for KRQB - July, 2019

Change the Weather History Date:

Thursday, July 11, 2019

  Actual Average Record
Temperature  
Mean Temperature 67 °F -  
Max Temperature 76 °F 82 °F 93 °F (1980)
Min Temperature 58 °F 56 °F 42 °F (1978)
Cooling Degree Days 2    
Growing Degree Days 17 (Base 50)    
Moisture  
Dew Point 59 °F    
Average Humidity 71    
Maximum Humidity 90    
Minimum Humidity 57    
Precipitation  
Precipitation 0.00 in - - ()
Sea Level Pressure  
Sea Level Pressure 29.90 in    
Wind  
Wind Speed 8 mph (NW)    
Max Wind Speed 14 mph    
Max Gust Speed 21 mph    
Visibility 10 miles    
Events      
Averages and records for this station are not official NWS values.
T = Trace of Precipitation, MM = Missing Value Source: NWS Daily Summary

Daily Weather History Graph

Daily Weather History Graph

Search for Another Location

Airport or City:

Astronomy

Jul. 11, 2019 Rise Set
Actual Time 6:10 AM EDT 9:24 PM EDT
Civil Twilight 5:35 AM EDT 9:59 PM EDT
Nautical Twilight 4:50 AM EDT 10:44 PM EDT
Astronomical Twilight 3:54 AM EDT 11:39 PM EDT
Moon 4:31 PM EDT (7/11) 2:27 AM EDT (7/11)
Length of Visible Light 16h 23m
Length of Day
15h 13m
Waxing Gibbous, 74% of the Moon is Illuminated
Jul 11
Waxing Gibbous
Jul 16
Full
Jul 24
Last Quarter
Jul 31
New
Aug 7
First Quarter

Hourly Weather History & Observations

Time (EDT) Temp. Dew Point Humidity Pressure Visibility Wind Dir Wind Speed Gust Speed Precip Events Conditions
12:15 AM 76.6 °F 61.5 °F 59% 29.85 in 10.0 mi NW 9.2 mph 20.7 mph N/A   Scattered Clouds
12:20 AM 76.5 °F 61.0 °F 59% 29.85 in 10.0 mi NW 5.8 mph 19.6 mph N/A   Scattered Clouds
12:37 AM 75.7 °F 59.5 °F 57% 29.85 in 10.0 mi NW 5.8 mph - N/A   Mostly Cloudy
12:55 AM 75.0 °F 59.5 °F 58% 29.85 in 10.0 mi WNW 6.9 mph - N/A   Mostly Cloudy
12:56 AM 74.8 °F 59.5 °F 59% 29.85 in 10.0 mi WNW 6.9 mph - N/A   Mostly Cloudy
1:15 AM 73.8 °F 59.4 °F 61% 29.85 in 10.0 mi WNW 8.1 mph 16.1 mph N/A   Scattered Clouds
1:16 AM 73.8 °F 59.2 °F 60% 29.85 in 10.0 mi WNW 8.1 mph 16.1 mph N/A   Scattered Clouds
1:35 AM 73.0 °F 59.0 °F 61% 29.84 in 10.0 mi WNW 5.8 mph - N/A   Clear
1:40 AM 72.7 °F 59.0 °F 62% 29.85 in 10.0 mi West 8.1 mph - N/A   Clear
1:58 AM 72.0 °F 59.2 °F 64% 29.84 in 10.0 mi WNW 11.5 mph - N/A   Clear
2:16 AM 71.6 °F 59.0 °F 64% 29.85 in 10.0 mi WNW 11.5 mph - N/A   Scattered Clouds
2:35 AM 70.9 °F 59.2 °F 66% 29.85 in 10.0 mi West 11.5 mph - N/A   Scattered Clouds
2:55 AM 70.0 °F 59.2 °F 68% 29.84 in 10.0 mi WNW 12.7 mph - N/A   Scattered Clouds
3:19 AM 68.9 °F 59.5 °F 72% 29.84 in 10.0 mi West 5.8 mph - N/A   Clear
3:36 AM 68.4 °F 59.9 °F 74% 29.85 in 10.0 mi West 4.6 mph - N/A   Clear
3:55 AM 66.7 °F 60.1 °F 79% 29.85 in 10.0 mi West 5.8 mph - N/A   Clear
4:15 AM 67.1 °F 60.1 °F 78% 29.85 in 10.0 mi West 5.8 mph - N/A   Clear
4:20 AM 67.1 °F 59.9 °F 78% 29.85 in 10.0 mi West 5.8 mph - N/A   Clear
4:38 AM 65.8 °F 59.9 °F 81% 29.86 in 10.0 mi West 5.8 mph - N/A   Clear
4:56 AM 65.7 °F 59.9 °F 82% 29.86 in 10.0 mi WNW 6.9 mph - N/A   Clear
5:15 AM 65.8 °F 60.1 °F 82% 29.86 in 10.0 mi WNW 5.8 mph - N/A   Clear
5:35 AM 65.3 °F 59.9 °F 83% 29.86 in 10.0 mi WNW 6.9 mph - N/A   Clear
5:40 AM 65.3 °F 59.9 °F 83% 29.86 in 10.0 mi WNW 6.9 mph - N/A   Clear
5:58 AM 65.3 °F 59.9 °F 83% 29.86 in 10.0 mi West 4.6 mph - N/A   Clear
6:16 AM 64.4 °F 59.9 °F 85% 29.86 in 10.0 mi West 4.6 mph - N/A   Clear
6:35 AM 64.0 °F 59.9 °F 86% 29.87 in 10.0 mi NNW 3.5 mph - N/A   Clear
6:55 AM 63.0 °F 60.1 °F 90% 29.87 in 10.0 mi North 5.8 mph - N/A   Clear
6:56 AM 63.1 °F 60.3 °F 90% 29.87 in 10.0 mi North 5.8 mph - N/A   Clear
7:19 AM 66.2 °F 61.3 °F 84% 29.87 in 10.0 mi WNW 3.5 mph - N/A   Clear
7:37 AM 67.3 °F 61.7 °F 82% 29.87 in 10.0 mi WNW 3.5 mph - N/A   Clear
7:55 AM 69.1 °F 61.9 °F 78% 29.87 in 10.0 mi Calm Calm - N/A   Clear
8:15 AM 70.0 °F 61.3 °F 74% 29.87 in 10.0 mi WNW 10.4 mph - N/A   Clear
8:16 AM 70.0 °F 61.5 °F 74% 29.87 in 10.0 mi WNW 10.4 mph - N/A   Clear
8:35 AM 70.7 °F 61.5 °F 73% 29.88 in 10.0 mi NNW 9.2 mph - N/A   Clear
8:57 AM 71.6 °F 61.7 °F 71% 29.88 in 10.0 mi North 10.4 mph 17.3 mph N/A   Clear
9:15 AM 72.3 °F 61.7 °F 69% 29.88 in 10.0 mi WNW 13.8 mph 17.3 mph N/A   Clear
9:16 AM 72.1 °F 61.5 °F 69% 29.88 in 10.0 mi WNW 13.8 mph 17.3 mph N/A   Clear
9:35 AM 72.0 °F 62.1 °F 71% 29.89 in 10.0 mi NW 10.4 mph - N/A   Scattered Clouds
9:36 AM 71.8 °F 62.1 °F 71% 29.89 in 10.0 mi WNW 11.5 mph - N/A   Scattered Clouds
9:55 AM 71.2 °F 62.2 °F 73% 29.89 in 10.0 mi NW 11.5 mph 18.4 mph N/A   Mostly Cloudy
10:18 AM 71.1 °F 62.1 °F 73% 29.90 in 10.0 mi NNW 8.1 mph 18.4 mph N/A   Overcast
10:36 AM 71.8 °F 62.1 °F 71% 29.90 in 10.0 mi NW 10.4 mph 16.1 mph N/A   Overcast
10:55 AM 72.7 °F 61.9 °F 69% 29.90 in 10.0 mi NW 11.5 mph 19.6 mph N/A   Mostly Cloudy
11:15 AM 72.5 °F 61.9 °F 69% 29.90 in 10.0 mi NNW 6.9 mph - N/A   Mostly Cloudy
11:39 AM 73.8 °F 61.2 °F 65% 29.90 in 10.0 mi NNW 12.7 mph 17.3 mph N/A   Scattered Clouds
11:57 AM 74.3 °F 60.6 °F 62% 29.90 in 10.0 mi NW 12.7 mph - N/A   Mostly Cloudy
12:15 PM 74.3 °F 60.3 °F 61% 29.90 in 10.0 mi WNW 8.1 mph 17.3 mph N/A   Mostly Cloudy
12:35 PM 73.8 °F 59.7 °F 61% 29.90 in 10.0 mi NNW 11.5 mph 17.3 mph N/A   Mostly Cloudy
12:36 PM 73.6 °F 59.7 °F 62% 29.90 in 10.0 mi NNW 10.4 mph 17.3 mph N/A   Mostly Cloudy
12:55 PM 75.4 °F 59.5 °F 58% 29.90 in 10.0 mi WNW 10.4 mph - N/A   Mostly Cloudy
1:18 PM 74.3 °F 59.4 °F 60% 29.90 in 10.0 mi NNW 12.7 mph 19.6 mph N/A   Overcast
1:36 PM 74.8 °F 58.8 °F 57% 29.90 in 10.0 mi WNW 12.7 mph 18.4 mph N/A   Mostly Cloudy
1:55 PM 74.3 °F 59.4 °F 60% 29.91 in 10.0 mi NNW 9.2 mph 19.6 mph N/A   Overcast
2:15 PM 73.8 °F 59.2 °F 60% 29.91 in 10.0 mi North 11.5 mph 20.7 mph N/A   Overcast
2:39 PM 71.6 °F 59.4 °F 65% 29.92 in 10.0 mi NNW 13.8 mph 20.7 mph N/A   Overcast
2:57 PM 71.1 °F 59.2 °F 66% 29.92 in 10.0 mi NNW 11.5 mph 19.6 mph N/A   Overcast
3:15 PM 69.8 °F 57.9 °F 66% 29.92 in 10.0 mi North 11.5 mph 19.6 mph N/A   Overcast
3:16 PM 69.8 °F 58.1 °F 66% 29.92 in 10.0 mi North 11.5 mph 19.6 mph N/A   Overcast
3:35 PM 68.9 °F 57.4 °F 67% 29.93 in 10.0 mi NNW 10.4 mph 18.4 mph N/A   Overcast
3:59 PM 68.4 °F 56.5 °F 66% 29.94 in 10.0 mi North 11.5 mph 17.3 mph N/A   Overcast
4:17 PM 68.7 °F 56.5 °F 65% 29.94 in 10.0 mi NW 12.7 mph 18.4 mph N/A   Overcast
4:35 PM 68.4 °F 56.7 °F 66% 29.94 in 10.0 mi NW 11.5 mph - N/A   Overcast
4:55 PM 69.1 °F 56.7 °F 65% 29.94 in 10.0 mi NNW 12.7 mph 19.6 mph N/A   Overcast
5:15 PM 68.5 °F 56.5 °F 65% 29.93 in 10.0 mi NW 10.4 mph - N/A   Overcast
5:20 PM 68.2 °F 55.8 °F 64% 29.93 in 10.0 mi NNW 9.2 mph - N/A   Overcast
5:38 PM 67.6 °F 56.8 °F 68% 29.93 in 10.0 mi NW 9.2 mph - N/A   Overcast
5:56 PM 67.3 °F 56.7 °F 69% 29.93 in 10.0 mi NNW 9.2 mph - N/A   Overcast
6:15 PM 66.4 °F 56.8 °F 71% 29.93 in 10.0 mi NW 6.9 mph 16.1 mph N/A   Overcast
6:35 PM 65.8 °F 56.3 °F 71% 29.93 in 10.0 mi NW 11.5 mph - N/A   Overcast
6:36 PM 65.8 °F 56.3 °F 71% 29.93 in 10.0 mi NW 8.1 mph - N/A   Overcast
6:59 PM 65.5 °F 56.5 °F 73% 29.94 in 10.0 mi NNW 8.1 mph - N/A   Overcast
7:16 PM 65.3 °F 56.3 °F 73% 29.94 in 10.0 mi NNW 9.2 mph - N/A   Overcast
7:35 PM 65.3 °F 56.5 °F 73% 29.94 in 10.0 mi NNW 6.9 mph - N/A   Overcast
7:36 PM 65.3 °F 56.5 °F 73% 29.93 in 10.0 mi NNW 5.8 mph - N/A   Overcast
7:55 PM 65.1 °F 56.3 °F 73% 29.94 in 10.0 mi North 10.4 mph - N/A   Overcast
8:00 PM 64.9 °F 56.3 °F 74% 29.94 in 10.0 mi North 8.1 mph - N/A   Overcast
8:18 PM 64.4 °F 55.9 °F 74% 29.95 in 10.0 mi NNW 9.2 mph - N/A   Overcast
8:36 PM 64.2 °F 56.3 °F 75% 29.95 in 10.0 mi NNW 5.8 mph - N/A   Mostly Cloudy
8:55 PM 63.5 °F 56.3 °F 77% 29.95 in 10.0 mi North 5.8 mph - N/A   Mostly Cloudy
9:15 PM 62.6 °F 55.8 °F 78% 29.95 in 10.0 mi WNW 4.6 mph - N/A   Scattered Clouds
9:39 PM 62.1 °F 55.6 °F 79% 29.95 in 10.0 mi NW 4.6 mph - N/A   Clear
9:57 PM 61.3 °F 55.4 °F 81% 29.96 in 10.0 mi NNW 4.6 mph - N/A   Clear
10:15 PM 60.3 °F 54.9 °F 82% 29.96 in 10.0 mi NW 4.6 mph - N/A   Clear
10:35 PM 59.7 °F 54.9 °F 84% 29.96 in 10.0 mi NNW 4.6 mph - N/A   Clear
10:36 PM 59.7 °F 54.9 °F 84% 29.96 in 10.0 mi North 5.8 mph - N/A   Clear
10:55 PM 59.2 °F 54.5 °F 84% 29.97 in 10.0 mi NW 3.5 mph - N/A   Clear
11:18 PM 59.2 °F 53.4 °F 81% 29.96 in 10.0 mi Calm Calm - N/A   Clear
11:36 PM 58.3 °F 52.3 °F 81% 29.96 in 10.0 mi NW 3.5 mph - N/A   Clear
11:55 PM 58.1 °F 51.8 °F 80% 29.95 in 10.0 mi Calm Calm - N/A   Clear
11:56 PM 58.1 °F 51.6 °F 79% 29.95 in 10.0 mi NW 3.5 mph - N/A   Clear